Location: ??? ????
(38.0580°N, 23.1536°E)
Time: 15:00:11
(UTC+00:00)

Aureole 1 Rocket - Pass Details

Date: 13 December 2025
Orbit: 372 x 1168 km, 73.9° (Epoch: 17 January)

Event Time Altitude Azimuth Distance (km) Brightness Sun altitude
Rises 16:01:38 0° 193° (SSW) 2,663 6.8 -10.3°
Reaches altitude 10° 16:03:34 10° 192° (SSW) 1,876 6.0 -10.7°
Maximum altitude 16:07:45 78° 106° (ESE) 692 3.2 -11.5°
Drops below altitude 10° 16:13:08 10° 21° (NNE) 2,398 5.7 -12.4°
Enters shadow 16:15:01 - 20° (NNE) 3,137 6.3 -12.8°
